| time (UTC) | temp C | wind direction | speed KPH | gust KPH | rain 1hr cm | rain 24hr cm | rain mn cm | humidity % | barometer mb |
| 20260906191437 | 25 | 202 | 1.6 | 1.6 | 0.00 | 0.00 | 0.00 | 78 | 1016.8 |
| 20260906190936 | 25 | 203 | 1.6 | 1.6 | 0.00 | 0.00 | 0.00 | 77 | 1016.7 |
| 20260906190435 | 25 | 236 | 1.6 | 3.2 | 0.00 | 0.00 | 0.00 | 78 | 1016.6 |
| 20260906185930 | 25 | 204 | 3.2 | 3.2 | 0.00 | 0.00 | 0.00 | 79 | 1016.8 |
| 20260906185430 | 25 | 189 | 4.8 | 4.8 | 0.00 | 0.00 | 0.00 | 78 | 1016.8 |
| 20260906184928 | 25 | 189 | 3.2 | 3.2 | 0.00 | 0.00 | 0.00 | 79 | 1016.8 |
| 20260906184419 | 25 | 196 | 6.4 | 8.0 | 0.00 | 0.00 | 0.00 | 78 | 1016.7 |
| 20260906183914 | 24 | 211 | 1.6 | 3.2 | 0.00 | 0.00 | 0.00 | 80 | 1016.7 |
| 20260906183410 | 24 | 185 | 6.4 | 8.0 | 0.00 | 0.00 | 0.00 | 80 | 1016.7 |
| 20260906182905 | 24 | 193 | 4.8 | 4.8 | 0.00 | 0.00 | 0.00 | 80 | 1016.7 |
| 20260906182401 | 24 | 199 | 6.4 | 8.0 | 0.00 | 0.00 | 0.00 | 80 | 1016.8 |
| 20260906181856 | 24 | 187 | 4.8 | 8.0 | 0.00 | 0.00 | 0.00 | 80 | 1016.7 |
| 20260906181352 | 24 | 188 | 4.8 | 4.8 | 0.00 | 0.00 | 0.00 | 80 | 1016.8 |
| 20260906180848 | 23 | 220 | 1.6 | 1.6 | 0.00 | 0.00 | 0.00 | 82 | 1017.0 |
| 20260906180342 | 23 | 205 | 3.2 | 3.2 | 0.00 | 0.00 | 0.00 | 82 | 1017.0 |
| 20260906175839 | 23 | 220 | 1.6 | 3.2 | 0.00 | 0.00 | 0.00 | 82 | 1017.0 |
| 20260906175335 | 23 | 176 | 4.8 | 4.8 | 0.00 | 0.00 | 0.00 | 82 | 1016.8 |
| 20260906174834 | 23 | 205 | 1.6 | 1.6 | 0.00 | 0.00 | 0.00 | 83 | 1016.8 |
| 20260906174333 | 23 | 187 | 3.2 | 3.2 | 0.00 | 0.00 | 0.00 | 84 | 1017.2 |
| 20260906173828 | 23 | 172 | 1.6 | 1.6 | 0.00 | 0.00 | 0.00 | 84 | 1017.2 |
| 20260906173324 | 23 | 175 | 3.2 | 4.8 | 0.00 | 0.00 | 0.00 | 82 | 1017.0 |
| 20260906172823 | 24 | 183 | 3.2 | 3.2 | 0.00 | 0.00 | 0.00 | 81 | 1017.0 |
| 20260906172319 | 25 | 234 | 4.8 | 4.8 | 0.00 | 0.00 | 0.00 | 80 | 1017.0 |
| 20260906171814 | 25 | 198 | 1.6 | 3.2 | 0.00 | 0.00 | 0.00 | 80 | 1016.7 |
| 20260906171309 | 24 | 202 | 4.8 | 4.8 | 0.00 | 0.00 | 0.00 | 80 | 1017.2 |
| 20260906170804 | 24 | 205 | 4.8 | 4.8 | 0.00 | 0.00 | 0.00 | 81 | 1017.0 |
| 20260906170300 | 24 | 202 | 4.8 | 8.0 | 0.00 | 0.00 | 0.00 | 80 | 1017.2 |
| 20260906165756 | 24 | 178 | 4.8 | 4.8 | 0.00 | 0.00 | 0.00 | 81 | 1017.1 |
| 20260906165250 | 24 | 199 | 4.8 | 4.8 | 0.00 | 0.00 | 0.00 | 81 | 1017.3 |
| 20260906164749 | 24 | 177 | 4.8 | 4.8 | 0.00 | 0.00 | 0.00 | 82 | 1017.3 |
| 20260906164244 | 24 | 199 | 3.2 | 3.2 | 0.00 | 0.00 | 0.00 | 81 | 1017.1 |
| 20260906163740 | 25 | 198 | 3.2 | 4.8 | 0.00 | 0.00 | 0.00 | 80 | 1017.2 |
| 20260906163237 | 25 | 149 | 3.2 | 3.2 | 0.00 | 0.00 | 0.00 | 79 | 1017.3 |
| 20260906162733 | 25 | 239 | 3.2 | 3.2 | 0.00 | 0.00 | 0.00 | 78 | 1017.2 |
| 20260906162227 | 25 | 164 | 0.0 | 1.6 | 0.00 | 0.00 | 0.00 | 80 | 1017.3 |
| 20260906161722 | 24 | 209 | 4.8 | 4.8 | 0.00 | 0.00 | 0.00 | 80 | 1017.3 |
| 20260906161222 | 24 | 207 | 3.2 | 3.2 | 0.00 | 0.00 | 0.00 | 80 | 1017.2 |
| 20260906160720 | 25 | 192 | 4.8 | 4.8 | 0.00 | 0.00 | 0.00 | 81 | 1017.1 |
| 20260906160220 | 24 | 197 | 1.6 | 1.6 | 0.00 | 0.00 | 0.00 | 81 | 1017.2 |
| 20260906155717 | 24 | 179 | 4.8 | 4.8 | 0.00 | 0.00 | 0.00 | 81 | 1017.3 |
| 20260906155213 | 25 | 184 | 1.6 | 1.6 | 0.00 | 0.00 | 0.00 | 81 | 1017.6 |
| 20260906154708 | 25 | 216 | 1.6 | 3.2 | 0.00 | 0.00 | 0.00 | 81 | 1017.6 |
| 20260906154203 | 24 | 148 | 4.8 | 4.8 | 0.00 | 0.00 | 0.00 | 81 | 1017.7 |
| 20260906153701 | 24 | 179 | 3.2 | 3.2 | 0.00 | 0.00 | 0.00 | 82 | 1017.5 |
| 20260906153156 | 24 | 185 | 1.6 | 1.6 | 0.00 | 0.00 | 0.00 | 82 | 1017.5 |
| 20260906152651 | 24 | 160 | 1.6 | 1.6 | 0.00 | 0.00 | 0.00 | 82 | 1017.6 |
| 20260906152145 | 24 | 203 | 3.2 | 3.2 | 0.00 | 0.00 | 0.00 | 82 | 1017.6 |
| 20260906151639 | 24 | 184 | 3.2 | 3.2 | 0.00 | 0.00 | 0.00 | 81 | 1017.6 |
| 20260906151136 | 24 | 197 | 1.6 | 1.6 | 0.00 | 0.00 | 0.00 | 83 | 1017.5 |
| 20260906150631 | 24 | 179 | 4.8 | 4.8 | 0.00 | 0.00 | 0.00 | 82 | 1017.6 |
| 20260906150126 | 24 | 166 | 3.2 | 3.2 | 0.00 | 0.00 | 0.00 | 83 | 1017.5 |
| 20260906145625 | 23 | 195 | 1.6 | 3.2 | 0.00 | 0.00 | 0.00 | 83 | 1017.5 |
| 20260906145120 | 23 | 208 | 1.6 | 3.2 | 0.00 | 0.00 | 0.00 | 84 | 1017.4 |
| 20260906144614 | 23 | 216 | 3.2 | 4.8 | 0.00 | 0.00 | 0.00 | 84 | 1017.3 |
| 20260906144109 | 23 | 197 | 0.0 | 3.2 | 0.00 | 0.00 | 0.00 | 85 | 1017.3 |
| 20260906143604 | 23 | 180 | 4.8 | 4.8 | 0.00 | 0.00 | 0.00 | 85 | 1017.4 |
| 20260906143101 | 23 | 200 | 1.6 | 1.6 | 0.00 | 0.00 | 0.00 | 86 | 1017.1 |
| 20260906142559 | 23 | 188 | 3.2 | 4.8 | 0.00 | 0.00 | 0.00 | 86 | 1017.2 |
| 20260906142055 | 23 | 201 | 1.6 | 1.6 | 0.00 | 0.00 | 0.00 | 86 | 1017.3 |
| 20260906141554 | 23 | 200 | 1.6 | 1.6 | 0.00 | 0.00 | 0.00 | 86 | 1017.2 |
| 20260906141050 | 22 | 194 | 1.6 | 1.6 | 0.00 | 0.00 | 0.00 | 87 | 1017.3 |
| 20260906140548 | 22 | 195 | 1.6 | 3.2 | 0.00 | 0.00 | 0.00 | 88 | 1017.6 |
| 20260906140043 | 22 | 211 | 0.0 | 0.0 | 0.00 | 0.00 | 0.00 | 90 | 1017.5 |
| 20260906135540 | 21 | 221 | 0.0 | 1.6 | 0.00 | 0.00 | 0.00 | 92 | 1017.6 |
| 20260906135036 | 21 | 204 | 0.0 | 0.0 | 0.00 | 0.00 | 0.00 | 94 | 1017.4 |
| 20260906134531 | 20 | 199 | 1.6 | 1.6 | 0.00 | 0.00 | 0.00 | 97 | 1017.4 |
| 20260906134026 | 20 | 196 | 1.6 | 1.6 | 0.00 | 0.00 | 0.00 | 99 | 1017.4 |
| 20260906133522 | 20 | 203 | 1.6 | 1.6 | 0.00 | 0.00 | 0.00 | 99 | 1017.5 |
| 20260906133017 | 20 | 208 | 0.0 | 0.0 | 0.00 | 0.00 | 0.00 | 99 | 1017.4 |
| 20260906132512 | 20 | 219 | 0.0 | 0.0 | 0.00 | 0.00 | 0.00 | 99 | 1017.3 |
| 20260906132008 | 20 | 202 | 1.6 | 1.6 | 0.00 | 0.00 | 0.00 | 99 | 1017.3 |
| 20260906131503 | 20 | 208 | 0.0 | 0.0 | 0.00 | 0.00 | 0.00 | 99 | 1017.2 |
| 20260906130958 | 18 | 208 | 0.0 | 0.0 | 0.00 | 0.00 | 0.00 | 99 | 1017.1 |
| 20260906130457 | 18 | 214 | 0.0 | 0.0 | 0.00 | 0.00 | 0.00 | 99 | 1017.2 |
| 20260906125952 | 18 | 214 | 0.0 | 0.0 | 0.00 | 0.00 | 0.00 | 99 | 1017.1 |
| 20260906125450 | 18 | 214 | 0.0 | 0.0 | 0.00 | 0.00 | 0.00 | 99 | 1017.3 |
| 20260906124949 | 17 | 215 | 0.0 | 0.0 | 0.00 | 0.00 | 0.00 | 99 | 1017.1 |
| 20260906124445 | 17 | 214 | 0.0 | 0.0 | 0.00 | 0.00 | 0.00 | 99 | 1017.2 |
| 20260906123944 | 17 | 214 | 0.0 | 0.0 | 0.00 | 0.00 | 0.00 | 99 | 1017.3 |
| 20260906123439 | 17 | 214 | 0.0 | 0.0 | 0.00 | 0.00 | 0.00 | 99 | 1017.3 |
| 20260906122939 | 17 | 214 | 0.0 | 0.0 | 0.00 | 0.00 | 0.00 | 99 | 1017.3 |
| 20260906122434 | 17 | 214 | 0.0 | 0.0 | 0.00 | 0.00 | 0.00 | 99 | 1017.4 |
| 20260906121931 | 17 | 214 | 0.0 | 0.0 | 0.00 | 0.00 | 0.00 | 99 | 1017.2 |
| 20260906121426 | 17 | 214 | 0.0 | 0.0 | 0.00 | 0.00 | 0.00 | 99 | 1017.4 |
| 20260906120923 | 17 | 214 | 0.0 | 0.0 | 0.00 | 0.00 | 0.00 | 99 | 1017.1 |
| 20260906120418 | 17 | 214 | 0.0 | 0.0 | 0.00 | 0.00 | 0.00 | 99 | 1017.1 |
| 20260906115914 | 17 | 214 | 0.0 | 0.0 | 0.00 | 0.00 | 0.00 | 99 | 1017.1 |
| 20260906115409 | 17 | 214 | 0.0 | 0.0 | 0.00 | 0.00 | 0.00 | 99 | 1016.8 |
| 20260906114908 | 17 | 214 | 0.0 | 0.0 | 0.00 | 0.00 | 0.00 | 99 | 1017.1 |
| 20260906114404 | 17 | 214 | 0.0 | 0.0 | 0.00 | 0.00 | 0.00 | 99 | 1016.8 |
| 20260906113859 | 17 | 214 | 0.0 | 0.0 | 0.00 | 0.00 | 0.00 | 99 | 1016.8 |
| 20260906113358 | 17 | 215 | 0.0 | 0.0 | 0.00 | 0.00 | 0.00 | 99 | 1016.8 |
| 20260906112854 | 17 | 215 | 0.0 | 0.0 | 0.00 | 0.00 | 0.00 | 99 | 1016.7 |
| 20260906112349 | 17 | 216 | 0.0 | 0.0 | 0.00 | 0.00 | 0.00 | 99 | 1016.7 |
| 20260906111844 | 18 | 216 | 0.0 | 0.0 | 0.00 | 0.00 | 0.00 | 98 | 1016.7 |
| 20260906111343 | 18 | 216 | 0.0 | 0.0 | 0.00 | 0.00 | 0.00 | 98 | 1016.6 |
| 20260906110839 | 18 | 208 | 0.0 | 0.0 | 0.00 | 0.00 | 0.00 | 98 | 1016.8 |
| 20260906110335 | 18 | 208 | 0.0 | 0.0 | 0.00 | 0.00 | 0.00 | 98 | 1016.8 |
| 20260906105833 | 18 | 209 | 0.0 | 0.0 | 0.00 | 0.00 | 0.00 | 98 | 1016.8 |
| 20260906105329 | 18 | 209 | 0.0 | 0.0 | 0.00 | 0.00 | 0.00 | 98 | 1016.6 |
| 20260906104825 | 18 | 209 | 0.0 | 0.0 | 0.00 | 0.00 | 0.00 | 98 | 1016.6 |
| 20260906104323 | 18 | 209 | 0.0 | 0.0 | 0.00 | 0.00 | 0.00 | 98 | 1016.6 |
| 20260906103821 | 18 | 209 | 0.0 | 0.0 | 0.00 | 0.00 | 0.00 | 98 | 1016.5 |
| 20260906103315 | 18 | 208 | 0.0 | 0.0 | 0.00 | 0.00 | 0.00 | 98 | 1016.2 |
| 20260906102811 | 18 | 208 | 0.0 | 0.0 | 0.00 | 0.00 | 0.00 | 98 | 1016.3 |
| 20260906102310 | 18 | 209 | 0.0 | 0.0 | 0.00 | 0.00 | 0.00 | 98 | 1016.2 |
| 20260906101805 | 18 | 209 | 0.0 | 0.0 | 0.00 | 0.00 | 0.00 | 98 | 1016.2 |
| 20260906101300 | 18 | 209 | 0.0 | 0.0 | 0.00 | 0.00 | 0.00 | 98 | 1016.4 |
| 20260906100756 | 18 | 209 | 0.0 | 0.0 | 0.00 | 0.00 | 0.00 | 98 | 1016.5 |
| 20260906100254 | 18 | 209 | 0.0 | 0.0 | 0.00 | 0.00 | 0.00 | 98 | 1016.3 |
| 20260906095750 | 19 | 203 | 0.0 | 0.0 | 0.00 | 0.00 | 0.00 | 98 | 1016.2 |
| 20260906095245 | 19 | 208 | 0.0 | 0.0 | 0.00 | 0.00 | 0.00 | 98 | 1016.4 |
| 20260906094744 | 19 | 209 | 0.0 | 0.0 | 0.00 | 0.00 | 0.00 | 98 | 1016.2 |
| 20260906094240 | 19 | 209 | 0.0 | 0.0 | 0.00 | 0.00 | 0.00 | 98 | 1016.1 |
| 20260906093736 | 19 | 209 | 0.0 | 0.0 | 0.00 | 0.00 | 0.00 | 98 | 1015.8 |
| 20260906093231 | 19 | 209 | 0.0 | 0.0 | 0.00 | 0.00 | 0.00 | 98 | 1016.0 |
| 20260906092727 | 19 | 209 | 0.0 | 0.0 | 0.00 | 0.00 | 0.00 | 98 | 1015.7 |
| 20260906092226 | 19 | 209 | 0.0 | 0.0 | 0.00 | 0.00 | 0.00 | 98 | 1015.7 |
| 20260906091722 | 19 | 209 | 0.0 | 0.0 | 0.00 | 0.00 | 0.00 | 98 | 1015.6 |
| 20260906091218 | 19 | 209 | 0.0 | 0.0 | 0.00 | 0.00 | 0.00 | 98 | 1015.6 |
| 20260906090715 | 19 | 209 | 0.0 | 0.0 | 0.00 | 0.00 | 0.00 | 98 | 1015.7 |
| 20260906090213 | 19 | 210 | 0.0 | 0.0 | 0.00 | 0.00 | 0.00 | 98 | 1015.7 |
| 20260906085713 | 19 | 209 | 0.0 | 0.0 | 0.00 | 0.00 | 0.00 | 97 | 1015.8 |
| 20260906085212 | 20 | 210 | 0.0 | 0.0 | 0.00 | 0.00 | 0.00 | 97 | 1015.8 |
| 20260906084707 | 20 | 209 | 0.0 | 0.0 | 0.00 | 0.00 | 0.00 | 97 | 1015.6 |
| 20260906084201 | 20 | 209 | 0.0 | 0.0 | 0.00 | 0.00 | 0.00 | 97 | 1015.6 |
| 20260906083655 | 20 | 209 | 0.0 | 0.0 | 0.00 | 0.00 | 0.00 | 97 | 1015.6 |
| 20260906083151 | 20 | 209 | 0.0 | 0.0 | 0.00 | 0.00 | 0.00 | 97 | 1015.6 |
| 20260906082646 | 20 | 209 | 0.0 | 0.0 | 0.00 | 0.00 | 0.00 | 97 | 1015.7 |
| 20260906082142 | 20 | 207 | 0.0 | 0.0 | 0.00 | 0.00 | 0.00 | 97 | 1015.6 |
| 20260906081638 | 20 | 167 | 1.6 | 1.6 | 0.00 | 0.00 | 0.00 | 97 | 1015.5 |
| 20260906081132 | 20 | 208 | 0.0 | 0.0 | 0.00 | 0.00 | 0.00 | 97 | 1015.6 |
| 20260906080629 | 20 | 208 | 0.0 | 0.0 | 0.00 | 0.00 | 0.00 | 97 | 1015.7 |
| 20260906080124 | 20 | 208 | 0.0 | 0.0 | 0.00 | 0.00 | 0.00 | 97 | 1015.6 |
| 20260906075619 | 20 | 207 | 0.0 | 0.0 | 0.00 | 0.00 | 0.00 | 97 | 1015.4 |
| 20260906075113 | 20 | 207 | 0.0 | 0.0 | 0.00 | 0.00 | 0.00 | 96 | 1015.4 |
| 20260906074609 | 20 | 208 | 0.0 | 0.0 | 0.00 | 0.00 | 0.00 | 96 | 1015.5 |
| 20260906074107 | 20 | 208 | 0.0 | 0.0 | 0.00 | 0.00 | 0.00 | 96 | 1015.7 |
| 20260906073602 | 20 | 210 | 0.0 | 0.0 | 0.00 | 0.00 | 0.00 | 96 | 1015.8 |
| 20260906073058 | 20 | 209 | 0.0 | 0.0 | 0.00 | 0.00 | 0.00 | 96 | 1015.8 |
| 20260906072552 | 20 | 210 | 0.0 | 0.0 | 0.00 | 0.00 | 0.00 | 96 | 1015.6 |
| 20260906072049 | 20 | 209 | 0.0 | 0.0 | 0.00 | 0.00 | 0.00 | 96 | 1015.5 |
| 20260906071545 | 20 | 209 | 0.0 | 0.0 | 0.00 | 0.00 | 0.00 | 96 | 1015.8 |
| 20260906071040 | 20 | 210 | 0.0 | 0.0 | 0.00 | 0.00 | 0.00 | 96 | 1015.8 |
| 20260906070536 | 20 | 213 | 0.0 | 0.0 | 0.00 | 0.00 | 0.00 | 96 | 1015.8 |
| 20260906070032 | 20 | 213 | 0.0 | 0.0 | 0.00 | 0.00 | 0.00 | 96 | 1016.1 |
| 20260906065531 | 20 | 213 | 0.0 | 0.0 | 0.00 | 0.00 | 0.00 | 96 | 1015.9 |
| 20260906065027 | 20 | 213 | 0.0 | 0.0 | 0.00 | 0.00 | 0.00 | 96 | 1016.1 |
| 20260906064522 | 20 | 213 | 0.0 | 0.0 | 0.00 | 0.00 | 0.00 | 96 | 1016.3 |
| 20260906064017 | 20 | 213 | 0.0 | 0.0 | 0.00 | 0.00 | 0.00 | 96 | 1016.2 |
| 20260906063513 | 20 | 213 | 0.0 | 0.0 | 0.00 | 0.00 | 0.00 | 96 | 1016.1 |
| 20260906063008 | 20 | 213 | 0.0 | 0.0 | 0.00 | 0.00 | 0.00 | 96 | 1016.2 |
| 20260906062503 | 20 | 213 | 0.0 | 0.0 | 0.00 | 0.00 | 0.00 | 96 | 1016.2 |
| 20260906061957 | 20 | 213 | 0.0 | 0.0 | 0.00 | 0.00 | 0.00 | 96 | 1016.1 |
| 20260906061454 | 20 | 213 | 0.0 | 0.0 | 0.00 | 0.00 | 0.00 | 96 | 1015.9 |
| 20260906060947 | 20 | 213 | 0.0 | 0.0 | 0.00 | 0.00 | 0.00 | 96 | 1016.0 |
| 20260906060445 | 20 | 213 | 0.0 | 0.0 | 0.00 | 0.00 | 0.00 | 96 | 1015.9 |
| 20260906055941 | 20 | 213 | 0.0 | 0.0 | 0.00 | 0.00 | 0.00 | 96 | 1016.0 |
| 20260906055437 | 20 | 213 | 0.0 | 0.0 | 0.00 | 0.00 | 0.00 | 96 | 1016.0 |
| 20260906054932 | 20 | 213 | 0.0 | 0.0 | 0.00 | 0.00 | 0.00 | 96 | 1016.0 |
| 20260906054427 | 20 | 213 | 0.0 | 0.0 | 0.00 | 0.00 | 0.00 | 96 | 1016.1 |
| 20260906053922 | 20 | 213 | 0.0 | 0.0 | 0.00 | 0.00 | 0.00 | 96 | 1015.9 |
| 20260906053419 | 20 | 213 | 0.0 | 0.0 | 0.00 | 0.00 | 0.00 | 96 | 1015.9 |
| 20260906052914 | 20 | 213 | 0.0 | 0.0 | 0.00 | 0.00 | 0.00 | 96 | 1015.9 |
| 20260906052410 | 20 | 213 | 0.0 | 0.0 | 0.00 | 0.00 | 0.00 | 95 | 1016.1 |
| 20260906051907 | 20 | 213 | 0.0 | 0.0 | 0.00 | 0.00 | 0.00 | 96 | 1015.8 |
| 20260906051407 | 20 | 214 | 0.0 | 0.0 | 0.00 | 0.00 | 0.00 | 95 | 1016.0 |
| 20260906050903 | 20 | 214 | 0.0 | 0.0 | 0.00 | 0.00 | 0.00 | 95 | 1016.1 |
| 20260906050357 | 20 | 214 | 0.0 | 0.0 | 0.00 | 0.00 | 0.00 | 95 | 1016.0 |
| 20260906045856 | 20 | 214 | 0.0 | 0.0 | 0.00 | 0.00 | 0.00 | 95 | 1016.1 |
| 20260906045355 | 20 | 214 | 0.0 | 0.0 | 0.00 | 0.00 | 0.00 | 95 | 1016.0 |
| 20260906044851 | 20 | 214 | 0.0 | 0.0 | 0.00 | 0.00 | 0.00 | 95 | 1015.9 |
| 20260906044346 | 20 | 214 | 0.0 | 0.0 | 0.00 | 0.00 | 0.00 | 95 | 1016.0 |
| 20260906043842 | 20 | 214 | 0.0 | 0.0 | 0.00 | 0.00 | 0.00 | 95 | 1016.1 |
| 20260906043338 | 20 | 210 | 0.0 | 0.0 | 0.00 | 0.00 | 0.00 | 95 | 1016.3 |
| 20260906042833 | 20 | 209 | 0.0 | 0.0 | 0.00 | 0.00 | 0.00 | 94 | 1016.0 |
| 20260906042331 | 20 | 209 | 0.0 | 0.0 | 0.00 | 0.00 | 0.00 | 94 | 1016.3 |
| 20260906041827 | 20 | 209 | 0.0 | 0.0 | 0.00 | 0.00 | 0.00 | 94 | 1016.4 |
| 20260906041323 | 20 | 209 | 0.0 | 0.0 | 0.00 | 0.00 | 0.00 | 94 | 1016.3 |
| 20260906040823 | 21 | 209 | 0.0 | 0.0 | 0.00 | 0.00 | 0.00 | 94 | 1016.3 |
| 20260906040318 | 21 | 210 | 0.0 | 0.0 | 0.00 | 0.00 | 0.00 | 93 | 1016.2 |
| 20260906035813 | 21 | 209 | 0.0 | 0.0 | 0.00 | 0.00 | 0.00 | 93 | 1016.4 |
| 20260906035308 | 21 | 209 | 0.0 | 0.0 | 0.00 | 0.00 | 0.00 | 93 | 1016.2 |
| 20260906034803 | 21 | 209 | 0.0 | 0.0 | 0.00 | 0.00 | 0.00 | 93 | 1016.4 |
| 20260906034258 | 21 | 209 | 0.0 | 0.0 | 0.00 | 0.00 | 0.00 | 92 | 1016.4 |
| 20260906033754 | 21 | 209 | 0.0 | 0.0 | 0.00 | 0.00 | 0.00 | 92 | 1016.4 |
| 20260906033253 | 21 | 209 | 0.0 | 0.0 | 0.00 | 0.00 | 0.00 | 92 | 1016.3 |
| 20260906032749 | 21 | 209 | 0.0 | 0.0 | 0.00 | 0.00 | 0.00 | 92 | 1016.1 |
| 20260906032244 | 21 | 209 | 0.0 | 0.0 | 0.00 | 0.00 | 0.00 | 91 | 1016.3 |
| 20260906031739 | 21 | 209 | 0.0 | 0.0 | 0.00 | 0.00 | 0.00 | 91 | 1016.2 |
| 20260906031235 | 22 | 209 | 0.0 | 0.0 | 0.00 | 0.00 | 0.00 | 91 | 1016.3 |
| 20260906030729 | 22 | 209 | 0.0 | 0.0 | 0.00 | 0.00 | 0.00 | 91 | 1016.5 |
| 20260906030224 | 22 | 209 | 0.0 | 0.0 | 0.00 | 0.00 | 0.00 | 90 | 1016.4 |
| 20260906025723 | 22 | 209 | 0.0 | 0.0 | 0.00 | 0.00 | 0.00 | 90 | 1016.4 |
| 20260906025218 | 22 | 209 | 0.0 | 0.0 | 0.00 | 0.00 | 0.00 | 90 | 1016.1 |
| 20260906024717 | 22 | 209 | 0.0 | 0.0 | 0.00 | 0.00 | 0.00 | 89 | 1016.1 |
| 20260906024216 | 22 | 209 | 0.0 | 0.0 | 0.00 | 0.00 | 0.00 | 89 | 1016.3 |
| 20260906023712 | 22 | 210 | 0.0 | 0.0 | 0.00 | 0.00 | 0.00 | 89 | 1016.4 |
| 20260906023207 | 22 | 210 | 0.0 | 0.0 | 0.00 | 0.00 | 0.00 | 89 | 1016.4 |
| 20260906022702 | 22 | 210 | 0.0 | 0.0 | 0.00 | 0.00 | 0.00 | 89 | 1016.2 |
| 20260906022158 | 22 | 210 | 0.0 | 0.0 | 0.00 | 0.00 | 0.00 | 89 | 1016.3 |
| 20260906021654 | 22 | 210 | 0.0 | 0.0 | 0.00 | 0.00 | 0.00 | 88 | 1015.9 |
| 20260906021152 | 22 | 214 | 0.0 | 0.0 | 0.00 | 0.00 | 0.00 | 88 | 1016.0 |
| 20260906020647 | 22 | 215 | 0.0 | 0.0 | 0.00 | 0.00 | 0.00 | 88 | 1016.0 |
| 20260906020142 | 22 | 210 | 0.0 | 0.0 | 0.00 | 0.00 | 0.00 | 87 | 1015.7 |
| 20260906015636 | 22 | 209 | 0.0 | 0.0 | 0.00 | 0.00 | 0.00 | 87 | 1015.4 |
| 20260906015134 | 22 | 209 | 0.0 | 0.0 | 0.00 | 0.00 | 0.00 | 86 | 1015.5 |
| 20260906014629 | 22 | 208 | 0.0 | 0.0 | 0.00 | 0.00 | 0.00 | 85 | 1015.3 |
| 20260906014125 | 22 | 209 | 0.0 | 0.0 | 0.00 | 0.00 | 0.00 | 85 | 1015.0 |
| 20260906013620 | 22 | 209 | 1.6 | 3.2 | 0.00 | 0.00 | 0.00 | 88 | 1014.8 |
| 20260906013116 | 22 | 209 | 0.0 | 0.0 | 0.00 | 0.00 | 0.00 | 87 | 1014.7 |
| 20260906012611 | 22 | 209 | 0.0 | 0.0 | 0.00 | 0.00 | 0.00 | 87 | 1014.3 |
| 20260906012110 | 22 | 209 | 0.0 | 0.0 | 0.00 | 0.00 | 0.00 | 86 | 1014.4 |
| 20260906011606 | 22 | 209 | 0.0 | 0.0 | 0.00 | 0.00 | 0.00 | 86 | 1014.2 |
| 20260906011101 | 22 | 209 | 0.0 | 0.0 | 0.00 | 0.00 | 0.00 | 85 | 1014.1 |
| 20260906010556 | 23 | 209 | 0.0 | 0.0 | 0.00 | 0.00 | 0.00 | 84 | 1013.9 |
| 20260906010052 | 23 | 207 | 0.0 | 0.0 | 0.00 | 0.00 | 0.00 | 83 | 1013.8 |
| 20260906005552 | 23 | 207 | 0.0 | 0.0 | 0.00 | 0.00 | 0.00 | 82 | 1013.6 |
| 20260906005051 | 24 | 207 | 0.0 | 0.0 | 0.00 | 0.00 | 0.00 | 81 | 1013.9 |
| 20260906004550 | 24 | 217 | 0.0 | 0.0 | 0.00 | 0.00 | 0.00 | 80 | 1013.9 |
| 20260906004045 | 25 | 217 | 0.0 | 0.0 | 0.00 | 0.00 | 0.00 | 78 | 1013.9 |
| 20260906003540 | 25 | 217 | 0.0 | 0.0 | 0.00 | 0.00 | 0.00 | 77 | 1013.7 |
| 20260906003037 | 25 | 217 | 0.0 | 0.0 | 0.00 | 0.00 | 0.00 | 76 | 1013.7 |
| 20260906002531 | 26 | 219 | 0.0 | 0.0 | 0.00 | 0.00 | 0.00 | 74 | 1013.6 |
| 20260906002026 | 26 | 219 | 0.0 | 0.0 | 0.00 | 0.00 | 0.00 | 73 | 1013.6 |
| 20260906001521 | 26 | 222 | 0.0 | 0.0 | 0.00 | 0.00 | 0.00 | 73 | 1013.6 |
| 20260906001015 | 26 | 206 | 0.0 | 0.0 | 0.00 | 0.00 | 0.00 | 72 | 1013.5 |
| 20260906000512 | 26 | 209 | 0.0 | 0.0 | 0.00 | 0.00 | 0.00 | 71 | 1013.4 |
| 20260906000006 | 26 | 208 | 0.0 | 0.0 | 0.00 | 0.00 | 0.00 | 71 | 1013.5 |
| 20260905235500 | 26 | 206 | 0.0 | 0.0 | 0.00 | 0.00 | 0.00 | 70 | 1013.5 |
| 20260905234955 | 26 | 223 | 0.0 | 0.0 | 0.00 | 0.00 | 0.00 | 69 | 1013.8 |
| 20260905234450 | 27 | 202 | 0.0 | 0.0 | 0.00 | 0.00 | 0.00 | 69 | 1013.6 |
| 20260905233944 | 27 | 211 | 0.0 | 0.0 | 0.00 | 0.00 | 0.00 | 69 | 1013.8 |
| 20260905233440 | 27 | 261 | 1.6 | 1.6 | 0.00 | 0.00 | 0.00 | 69 | 1013.9 |
| 20260905232939 | 27 | 228 | 0.0 | 0.0 | 0.00 | 0.00 | 0.00 | 69 | 1013.8 |
| 20260905232435 | 27 | 173 | 1.6 | 1.6 | 0.00 | 0.00 | 0.00 | 69 | 1013.7 |
| 20260905231931 | 27 | 210 | 0.0 | 0.0 | 0.00 | 0.00 | 0.00 | 69 | 1013.5 |
| 20260905231426 | 27 | 239 | 1.6 | 1.6 | 0.00 | 0.00 | 0.00 | 70 | 1013.2 |
| 20260905230922 | 27 | 81 | 3.2 | 3.2 | 0.00 | 0.00 | 0.00 | 71 | 1013.1 |
| 20260905230421 | 27 | 298 | 3.2 | 3.2 | 0.00 | 0.00 | 0.00 | 70 | 1013.2 |
| 20260905225919 | 27 | 217 | 0.0 | 0.0 | 0.00 | 0.00 | 0.00 | 69 | 1013.5 |
| 20260905225415 | 27 | 198 | 1.6 | 1.6 | 0.00 | 0.00 | 0.00 | 70 | 1013.5 |
| 20260905224909 | 27 | 192 | 0.0 | 1.6 | 0.00 | 0.00 | 0.00 | 69 | 1013.1 |
| 20260905224406 | 27 | 225 | 0.0 | 0.0 | 0.00 | 0.00 | 0.00 | 69 | 1013.5 |
| 20260905223900 | 27 | 200 | 1.6 | 1.6 | 0.00 | 0.00 | 0.00 | 70 | 1013.4 |
| 20260905223358 | 27 | 192 | 1.6 | 1.6 | 0.00 | 0.00 | 0.00 | 68 | 1013.0 |
| 20260905222857 | 27 | 186 | 3.2 | 3.2 | 0.00 | 0.00 | 0.00 | 69 | 1012.9 |
| 20260905222356 | 27 | 186 | 1.6 | 1.6 | 0.00 | 0.00 | 0.00 | 69 | 1012.8 |
| 20260905221853 | 27 | 187 | 1.6 | 1.6 | 0.00 | 0.00 | 0.00 | 70 | 1012.9 |
| 20260905221350 | 27 | 194 | 0.0 | 1.6 | 0.00 | 0.00 | 0.00 | 69 | 1012.9 |
| 20260905220845 | 27 | 85 | 3.2 | 3.2 | 0.00 | 0.00 | 0.00 | 70 | 1013.0 |
| 20260905220341 | 27 | 154 | 0.0 | 1.6 | 0.00 | 0.00 | 0.00 | 69 | 1013.1 |
| 20260905215840 | 27 | 213 | 0.0 | 1.6 | 0.00 | 0.00 | 0.00 | 67 | 1013.2 |
| 20260905215336 | 27 | 189 | 0.0 | 1.6 | 0.00 | 0.00 | 0.00 | 69 | 1013.4 |
| 20260905214833 | 27 | 199 | 0.0 | 1.6 | 0.00 | 0.00 | 0.00 | 67 | 1013.5 |
| 20260905214333 | 27 | 210 | 0.0 | 1.6 | 0.00 | 0.00 | 0.00 | 69 | 1013.6 |
| 20260905213827 | 27 | 18 | 8.0 | 12.9 | 0.00 | 0.00 | 0.00 | 68 | 1013.6 |
| 20260905213324 | 27 | 97 | 3.2 | 4.8 | 0.00 | 0.00 | 0.00 | 69 | 1013.8 |
| 20260905212819 | 27 | 11 | 4.8 | 8.0 | 0.00 | 0.00 | 0.00 | 69 | 1013.9 |
| 20260905212318 | 27 | 240 | 1.6 | 1.6 | 0.00 | 0.00 | 0.00 | 71 | 1013.5 |
| 20260905211813 | 27 | 338 | 3.2 | 4.8 | 0.00 | 0.00 | 0.00 | 71 | 1013.5 |
| 20260905211308 | 27 | 37 | 4.8 | 8.0 | 0.00 | 0.00 | 0.00 | 70 | 1013.6 |
| 20260905210805 | 27 | 80 | 4.8 | 4.8 | 0.00 | 0.00 | 0.00 | 73 | 1013.6 |
| 20260905210304 | 27 | 20 | 6.4 | 8.0 | 0.00 | 0.00 | 0.00 | 73 | 1013.7 |
| 20260905205803 | 27 | 40 | 8.0 | 11.3 | 0.00 | 0.00 | 0.00 | 74 | 1013.8 |
| 20260905205258 | 27 | 80 | 4.8 | 8.0 | 0.00 | 0.00 | 0.00 | 75 | 1013.8 |
| 20260905204757 | 27 | 231 | 3.2 | 4.8 | 0.00 | 0.00 | 0.00 | 75 | 1014.0 |
| 20260905204254 | 27 | 200 | 1.6 | 1.6 | 0.00 | 0.00 | 0.00 | 77 | 1014.3 |
| 20260905203752 | 26 | 162 | 3.2 | 4.8 | 0.00 | 0.00 | 0.00 | 75 | 1014.2 |
| 20260905203248 | 26 | 46 | 6.4 | 11.3 | 0.00 | 0.00 | 0.00 | 76 | 1014.6 |
| 20260905202743 | 26 | 44 | 6.4 | 8.0 | 0.00 | 0.00 | 0.00 | 75 | 1014.5 |
| 20260905202238 | 26 | 156 | 1.6 | 1.6 | 0.00 | 0.00 | 0.00 | 76 | 1014.8 |
| 20260905201734 | 26 | 56 | 4.8 | 8.0 | 0.00 | 0.00 | 0.00 | 77 | 1014.8 |
| 20260905201229 | 26 | 39 | 4.8 | 8.0 | 0.00 | 0.00 | 0.00 | 75 | 1014.8 |
| 20260905200724 | 26 | 320 | 1.6 | 3.2 | 0.00 | 0.00 | 0.00 | 77 | 1015.0 |
| 20260905200220 | 26 | 173 | 1.6 | 1.6 | 0.00 | 0.00 | 0.00 | 77 | 1015.2 |
| 20260905195717 | 26 | 33 | 3.2 | 4.8 | 0.00 | 0.00 | 0.00 | 78 | 1015.4 |
| 20260905195212 | 26 | 137 | 0.0 | 0.0 | 0.00 | 0.00 | 0.00 | 77 | 1015.2 |
| 20260905194708 | 26 | 153 | 3.2 | 4.8 | 0.00 | 0.00 | 0.00 | 78 | 1015.3 |
| 20260905194207 | 26 | 190 | 1.6 | 1.6 | 0.00 | 0.00 | 0.00 | 78 | 1015.3 |
| 20260905193702 | 26 | 193 | 1.6 | 1.6 | 0.00 | 0.00 | 0.00 | 76 | 1015.3 |
| 20260905193157 | 25 | 231 | 1.6 | 1.6 | 0.00 | 0.00 | 0.00 | 77 | 1015.4 |
| 20260905192652 | 25 | 280 | 1.6 | 1.6 | 0.00 | 0.00 | 0.00 | 80 | 1015.2 |
| 20260905192149 | 25 | 196 | 1.6 | 1.6 | 0.00 | 0.00 | 0.00 | 79 | 1015.7 |